Meadow Lake, CO

5:07 PM MDT on September 25, 2017 (GMT -0600)
Meadow Lake

Weather History for KFLY - January, 2013

Change the Weather History Date:

Tuesday, January 1, 2013

  Actual Average (KCOS) Record (KCOS)
Temperature  
Mean Temperature 16 °F -  
Max Temperature 27 °F 37 °F 64 °F (1918)
Min Temperature 6 °F 13 °F -19 °F (1901)
Degree Days  
Heating Degree Days 48    
Moisture  
Dew Point 9 °F    
Average Humidity 77    
Maximum Humidity 96    
Minimum Humidity 46    
Precipitation  
Precipitation 0.00 in - - ()
Sea Level Pressure  
Sea Level Pressure 30.02 in    
Wind  
Wind Speed 6 mph (West)    
Max Wind Speed 10 mph    
Max Gust Speed 16 mph    
Visibility 10 miles    
Events Snow    
Averages and records for this station are not official NWS values.
T = Trace of Precipitation, MM = Missing Value Source: NWS Daily Summary

Daily Weather History Graph

Daily Weather History Graph

Search for Another Location

Airport or City:

Trip Planner

Search our weather history database for the weather conditions in past years. The results will help you decide how hot, cold, wet, or windy it might be!

Date:

Astronomy

Jan. 01, 2013 Rise Set
Actual Time 7:17 AM MST 4:47 PM MST
Civil Twilight 6:47 AM MST 5:17 PM MST
Nautical Twilight 6:13 AM MST 5:50 PM MST
Astronomical Twilight 5:41 AM MST 6:22 PM MST
Moon 9:18 PM MST (1/1) 9:32 AM MST (1/1)
Length of Visible Light 10h 29m
Length of Day
9h 30m
Waning Gibbous, 83% of the Moon is Illuminated
Jan 1
Waning Gibbous
Jan 4
Last Quarter
Jan 11
New
Jan 18
First Quarter
Jan 26
Full

Hourly Weather History & Observations

Time (MST) Temp. Windchill Dew Point Humidity Pressure Visibility Wind Dir Wind Speed Gust Speed Precip Events Conditions
12:14 AM 13.1 °F 2.8 °F 12.2 °F 96% 29.95 in 0.2 mi SW 6.9 mph - N/A Snow Light Snow
12:34 AM 13.1 °F 2.8 °F 12.2 °F 96% 29.95 in 1.0 mi WSW 6.9 mph - N/A Snow Light Snow
12:54 AM 13.1 °F 2.8 °F 12.0 °F 95% 29.95 in 5.0 mi WSW 6.9 mph - N/A Snow Light Snow
1:14 AM 13.1 °F 2.8 °F 11.8 °F 95% 29.96 in 7.0 mi WSW 6.9 mph - N/A Snow Light Snow
1:34 AM 13.1 °F 4.0 °F 11.7 °F 94% 29.95 in 7.0 mi WSW 5.8 mph - N/A Snow Light Snow
1:54 AM 12.9 °F 3.8 °F 11.3 °F 93% 29.96 in 5.0 mi West 5.8 mph - N/A Snow Light Snow
2:14 AM 12.7 °F 2.4 °F 11.1 °F 93% 29.96 in 10.0 mi West 6.9 mph - N/A Snow Light Snow
2:34 AM 12.7 °F -0.4 °F 11.1 °F 93% 29.96 in 7.0 mi West 10.4 mph - N/A   Overcast
3:14 AM 11.3 °F 1.9 °F 9.3 °F 92% 29.96 in 10.0 mi West 5.8 mph - N/A   Overcast
3:34 AM 10.8 °F 1.2 °F 8.4 °F 90% 29.96 in 10.0 mi WSW 5.8 mph - N/A   Overcast
3:54 AM 10.2 °F - 8.1 °F 91% 29.96 in 10.0 mi Calm Calm - N/A   Overcast
4:14 AM 9.7 °F 1.4 °F 7.7 °F 92% 29.96 in 10.0 mi WSW 4.6 mph - N/A   Overcast
4:34 AM 9.9 °F -1.1 °F 7.5 °F 90% 29.96 in 10.0 mi West 6.9 mph - N/A   Overcast
4:54 AM 9.5 °F -0.3 °F 7.3 °F 91% 29.97 in 10.0 mi NNW 5.8 mph - N/A   Overcast
5:14 AM 13.6 °F 4.6 °F 11.1 °F 90% 29.97 in 10.0 mi North 5.8 mph - N/A   Overcast
5:34 AM 14.2 °F 2.2 °F 10.6 °F 86% 29.98 in 10.0 mi North 9.2 mph - N/A   Mostly Cloudy
5:54 AM 14.4 °F 2.4 °F 10.4 °F 84% 29.98 in 10.0 mi North 9.2 mph - N/A   Mostly Cloudy
6:14 AM 13.6 °F 1.6 °F 9.1 °F 82% 29.99 in 10.0 mi North 9.2 mph - N/A   Scattered Clouds
6:34 AM 13.1 °F 1.8 °F 8.6 °F 82% 30.00 in 10.0 mi NNW 8.1 mph 16.1 mph N/A   Clear
6:54 AM 13.3 °F 1.1 °F 8.6 °F 82% 30.00 in 10.0 mi NNW 9.2 mph - N/A   Scattered Clouds
7:14 AM 12.2 °F 2.9 °F 7.5 °F 82% 30.01 in 10.0 mi WNW 5.8 mph - N/A   Mostly Cloudy
7:34 AM 10.4 °F - 5.5 °F 81% 30.01 in 10.0 mi Calm Calm - N/A   Scattered Clouds
7:54 AM 12.7 °F 5.0 °F 7.9 °F 81% 30.02 in 10.0 mi NW 4.6 mph - N/A   Clear
8:14 AM 16.3 °F 7.8 °F 9.9 °F 76% 30.03 in 10.0 mi WSW 5.8 mph - N/A   Scattered Clouds
8:34 AM 18.1 °F - 10.8 °F 73% 30.04 in 10.0 mi Calm Calm - N/A   Scattered Clouds
8:54 AM 19.9 °F 14.9 °F 10.4 °F 67% 30.05 in 10.0 mi North 3.5 mph - N/A   Scattered Clouds
9:14 AM 20.8 °F 13.2 °F 10.0 °F 63% 30.06 in 10.0 mi NNE 5.8 mph - N/A   Scattered Clouds
9:34 AM 21.0 °F 16.2 °F 9.5 °F 61% 30.06 in 10.0 mi NNE 3.5 mph - N/A   Scattered Clouds
9:54 AM 21.2 °F 14.9 °F 10.8 °F 64% 30.07 in 10.0 mi ENE 4.6 mph - N/A   Overcast
10:14 AM 22.6 °F 16.5 °F 10.8 °F 60% 30.08 in 10.0 mi SSE 4.6 mph - N/A   Overcast
10:34 AM 23.0 °F 17.0 °F 10.2 °F 58% 30.08 in 10.0 mi SSE 4.6 mph - N/A   Overcast
10:54 AM 23.7 °F 17.8 °F 10.4 °F 57% 30.07 in 10.0 mi East 4.6 mph - N/A   Overcast
11:14 AM 24.4 °F 18.6 °F 9.3 °F 53% 30.06 in 10.0 mi SSE 4.6 mph - N/A   Overcast
11:34 AM 25.3 °F 18.5 °F 9.9 °F 52% 30.05 in 10.0 mi ESE 5.8 mph - N/A   Scattered Clouds
11:54 AM 25.9 °F 19.2 °F 10.0 °F 51% 30.05 in 10.0 mi East 5.8 mph - N/A   Clear
12:14 PM 27.1 °F 23.2 °F 9.0 °F 46% 30.04 in 10.0 mi ENE 3.5 mph - N/A   Clear
12:34 PM 27.0 °F 23.0 °F 9.0 °F 47% 30.03 in 10.0 mi SSE 3.5 mph - N/A   Scattered Clouds
12:54 PM 26.6 °F 22.6 °F 8.6 °F 47% 30.03 in 10.0 mi South 3.5 mph - N/A   Mostly Cloudy
1:14 PM 24.6 °F - 10.0 °F 54% 30.02 in 10.0 mi Calm Calm - N/A   Overcast
1:34 PM 23.7 °F 17.8 °F 9.7 °F 55% 30.02 in 10.0 mi ENE 4.6 mph - N/A   Overcast
2:14 PM 23.9 °F 18.0 °F 11.3 °F 59% 30.02 in 10.0 mi ENE 4.6 mph - N/A   Overcast
2:34 PM 23.0 °F 18.4 °F 12.2 °F 63% 30.02 in 10.0 mi ENE 3.5 mph - N/A   Overcast
2:54 PM 22.1 °F 13.7 °F 11.7 °F 64% 30.02 in 10.0 mi NNE 6.9 mph - N/A   Mostly Cloudy
3:14 PM 22.1 °F 14.7 °F 10.6 °F 61% 30.02 in 10.0 mi South 5.8 mph - N/A   Clear
3:34 PM 23.5 °F - 10.6 °F 58% 30.02 in 10.0 mi Calm Calm - N/A   Scattered Clouds
3:54 PM 22.6 °F - 9.1 °F 56% 30.02 in 10.0 mi Calm Calm - N/A   Scattered Clouds
4:14 PM 23.0 °F - 9.3 °F 56% 30.02 in 10.0 mi Calm Calm - N/A   Clear
4:34 PM 21.0 °F 13.4 °F 9.7 °F 62% 30.02 in 10.0 mi SW 5.8 mph - N/A   Clear
4:54 PM 17.4 °F 8.0 °F 9.5 °F 71% 30.02 in 10.0 mi SW 6.9 mph - N/A   Clear
5:14 PM 15.4 °F 8.1 °F 9.0 °F 76% 30.02 in 10.0 mi SW 4.6 mph - N/A   Clear
5:34 PM 15.1 °F 6.4 °F 9.1 °F 77% 30.03 in 10.0 mi WSW 5.8 mph - N/A   Clear
5:54 PM 13.6 °F 3.5 °F 8.2 °F 79% 30.03 in 10.0 mi SW 6.9 mph - N/A   Clear
6:14 PM 12.9 °F 3.8 °F 8.2 °F 82% 30.02 in 10.0 mi SW 5.8 mph - N/A   Clear
6:34 PM 12.9 °F 3.8 °F 8.2 °F 82% 30.02 in 10.0 mi WSW 5.8 mph - N/A   Clear
6:54 PM 12.4 °F 4.6 °F 8.2 °F 83% 30.02 in 10.0 mi WSW 4.6 mph - N/A   Clear
7:14 PM 12.0 °F 2.7 °F 8.4 °F 85% 30.03 in 10.0 mi WSW 5.8 mph - N/A   Clear
7:34 PM 12.0 °F 4.1 °F 9.1 °F 88% 30.03 in 10.0 mi West 4.6 mph - N/A   Clear
7:54 PM 11.7 °F 5.5 °F 9.3 °F 90% 30.04 in 10.0 mi WSW 3.5 mph - N/A   Clear
8:14 PM 12.2 °F - 10.2 °F 92% 30.04 in 10.0 mi Calm Calm - N/A   Clear
8:34 PM 6.8 °F -2.0 °F 2.8 °F 84% 30.04 in 10.0 mi WNW 4.6 mph - N/A   Clear
8:54 PM 6.1 °F -4.3 °F 3.0 °F 87% 30.05 in 10.0 mi WNW 5.8 mph - N/A   Clear
9:14 PM 6.6 °F -3.7 °F 4.3 °F 90% 30.06 in 10.0 mi NW 5.8 mph - N/A   Clear
9:34 PM 7.9 °F -3.5 °F 6.1 °F 92% 30.06 in 10.0 mi WNW 6.9 mph - N/A   Clear
9:54 PM 8.8 °F -3.5 °F 7.3 °F 94% 30.06 in 10.0 mi West 8.1 mph - N/A   Clear
10:14 PM 9.1 °F -1.9 °F 7.0 °F 91% 30.07 in 10.0 mi WNW 6.9 mph - N/A   Clear
10:34 PM 7.0 °F -1.7 °F 4.8 °F 91% 30.06 in 10.0 mi WNW 4.6 mph - N/A   Clear
10:54 PM 8.4 °F -1.6 °F 7.0 °F 94% 30.06 in 10.0 mi West 5.8 mph - N/A   Clear
11:14 PM 8.4 °F -2.8 °F 5.5 °F 88% 30.06 in 10.0 mi West 6.9 mph - N/A   Clear
11:34 PM 7.9 °F -4.6 °F 2.1 °F 77% 30.06 in 10.0 mi NW 8.1 mph - N/A   Clear
11:54 PM 10.6 °F -0.2 °F 2.3 °F 69% 30.06 in 10.0 mi NW 6.9 mph - N/A   Scattered Clouds